Regional Weather Roundup
Issued by NWS Portland, ME

Current Version | Previous Version | Text Only | Print | Product List | Glossary Off
Versions: 1 2 3 4 5 6 7 8 9 10 11 12 13 14 15 16 17 18 19 20 21 22 23 24 25 26 27 28 29 30 31 32 33 34 35 36 37 38 39 40 41 42 43 44 45 46 47 48 49 50
000 ASUS41 KGYX 200805 RWRGYX WEATHER ROUNDUP FOR MAINE AND NEW HAMPSHIRE NATIONAL WEATHER SERVICE GRAY ME 400 AM EDT THU JUN 20 2019 MEZ002-005-006-010-012-015-018-020-021-024-026-027-029-200900- MAINE CITY SKY/WX TMP DP RH WIND PRES REMARKS PORTLAND FOG 58 57 97 CALM 29.77F VSB 3/4 SANFORD FOG 59 58 96 E3 29.76F VSB 1/4 BAR HARBOR FOG 56 56 100 SE3 29.81F VSB 1 WISCASSET CLOUDY 57 56 96 S5 29.79F FOG ROCKLAND FOG 55 55 100 SE3 29.79F VSB 1/2 FRYEBURG CLOUDY 62 59 90 E5 29.75F LEWISTONAUBURN LGT RAIN 57 57 100 CALM 29.77S VSB 1/2 AUGUSTA FOG 57 57 100 S6 29.78F VSB 1/4 WATERVILLE LGT RAIN 58 58 100 CALM 29.76S FOG BANGOR CLOUDY 58 57 97 S8 29.78F FOG GREENVILLE N/A 57 56 96 SE6 29.74F MILLINOCKET CLOUDY 58 55 90 CALM 29.76F HOULTON RAIN 56 53 90 S8 29.74F FOG PRESQUE ISLE MOCLDY 58 57 97 CALM 29.75F FRENCHVILLE CLOUDY 56 52 86 CALM 29.74F CARIBOU CLOUDY 59 56 89 CALM 29.73F $$ NHZ002-005-008-009-011-012-014-200900- NEW HAMPSHIRE CITY SKY/WX TMP DP RH WIND PRES REMARKS PORTSMOUTH DRZL/FOG 59 59 99 SE6 29.74F VSB 3/4 ROCHESTER FOG 61 59 93 CALM 29.75F VSB 1/4 NASHUA CLOUDY 67 66 97 SE6 29.74F MANCHESTER CLOUDY 67 63 87 SE7 29.72F CONCORD CLOUDY 65 62 90 E5 29.73F LACONIA CLOUDY 65 62 90 CALM 29.74F PLYMOUTH CLOUDY 65 62 88 E3 29.73F BERLIN CLOUDY 59 57 93 CALM 29.74S WHITEFIELD CLOUDY 58 56 93 CALM 29.73F JAFFREY CLOUDY 66 62 87 CALM 29.75S KEENE CLOUDY 65 64 97 S3 29.72F LEBANON CLOUDY 68 62 81 CALM 29.71F MT WASHINGTON MOCLDY 50 48 93 W15 N/A $$ VTZ005-007-008-200900- VERMONT CITY SKY/WX TMP DP RH WIND PRES REMARKS ST JOHNSBURY N/A 63 63 100 MISG 29.69F MONTPELIER CLOUDY 64 63 96 S6 29.75S BURLINGTON FAIR 68 64 87 S5 29.67F $$ MAZ007-012-024-CTZ003-RIZ002-NYZ038-NYZ072-200900- SOUTHERN NEW ENGLAND AND NY CITY SKY/WX TMP DP RH WIND PRES REMARKS BOSTON CLOUDY 64 61 90 E6 29.75F WORCESTER CLOUDY 62 62 100 SE5 29.75F FOG NANTUCKET CLOUDY N/A N/A N/A SE3 29.75F PROVIDENCE CLOUDY 62 58 86 SE5 29.75F FOG HARTFORD DRIZZLE 66 63 90 SE3 29.72F FOG ALBANY CLOUDY 70 64 81 S7 29.68F NEW YORK CITY LGT RAIN 63 63 100 NE8 29.69S VSB 1/4 $$ ANZ081-ANZ082-ANZ150-NHZ014-MEZ023>029-200900- COASTAL MARINE OBSERVATIONS STATION/POSITION TIME TEMP WIND PRES WAVE AIR SEA DIR/SP/G HT/PER (UTC) (F) (DEG/KT/KT) (MB) (FT/S) ISLE OF SHOALS 0700 58 150/ 14/ 15 1007.5S CASHES LEDGE BUO 0750 54 53 140/ 6/ 8 1009.0F 2/ 8 GEORGES BANK BUO 0740 53 51 100/ 4/ 6 1009.2F $$ .............KEY.............. WCI - WIND CHILL TC - TEMPERATURE IN CELSIUS VSB - VISIBILITY IN MILES HX - HEAT INDEX FAIR- INDICATES FEW OR NO CLOUDS BELOW 12,000 FT, WITH NO SIGNIFICANT WEATHER AND/OR OBSTRUCTIONS TO VISIBILITY.

USA.gov is the U.S. government's official web portal to all federal, state and local government web resources and services.